Hourly Weather Sugot

Today, 10 July, Friday

Time Temperature Precipitation Wind Pressure Humidity
00:00 +19°C° 0 mm 1 mps 744 mmHg 67%
01:00 +18°C° 0.6 mm 1 mps 743 mmHg 77%
02:00 +16°C° 0.6 mm 1 mps 742 mmHg 87%
03:00 +15°C° 0.6 mm 2 mps 742 mmHg 97%
04:00 +15°C° 1.3 mm 1 mps 742 mmHg 97%
05:00 +15°C° 1.3 mm 1 mps 742 mmHg 97%
06:00 +15°C° 0 mm 1 mps 741 mmHg 99%
07:00 +16°C° 0.1 mm 2 mps 741 mmHg 89%
08:00 +17°C° 0.1 mm 4 mps 741 mmHg 78%
09:00 +17°C° 0.1 mm 5 mps 741 mmHg 68%
10:00 +19°C° 0 mm 5 mps 741 mmHg 64%
11:00 +19°C° 0 mm 5 mps 741 mmHg 60%
12:00 +17°C° 0 mm 5 mps 742 mmHg 60%
13:00 +17°C° 0 mm 5 mps 742 mmHg 62%
14:00 +17°C° 0 mm 5 mps 742 mmHg 65%
15:00 +17°C° 0 mm 4 mps 742 mmHg 68%
16:00 +18°C° 0.1 mm 4 mps 742 mmHg 66%
17:00 +19°C° 0.1 mm 5 mps 742 mmHg 64%
18:00 +20°C° 0.1 mm 5 mps 743 mmHg 62%
19:00 +19°C° 0 mm 5 mps 743 mmHg 68%
20:00 +18°C° 0 mm 4 mps 743 mmHg 73%
21:00 +17°C° 0 mm 3 mps 743 mmHg 79%
22:00 +17°C° 0 mm 3 mps 743 mmHg 81%
23:00 +16°C° 0 mm 3 mps 744 mmHg 83%

Tomorrow, 11 July, Saturday

Time Temperature Precipitation Wind Pressure Humidity
00:00 +16°C° 0 mm 3 mps 744 mmHg 84%
01:00 +14°C° 0 mm 3 mps 744 mmHg 86%
02:00 +14°C° 0 mm 3 mps 745 mmHg 89%
03:00 +13°C° 0 mm 3 mps 745 mmHg 91%
04:00 +14°C° 0 mm 3 mps 745 mmHg 89%
05:00 +16°C° 0 mm 3 mps 746 mmHg 88%
06:00 +16°C° 0 mm 3 mps 746 mmHg 87%
07:00 +18°C° 0 mm 3 mps 746 mmHg 79%
08:00 +19°C° 0 mm 3 mps 746 mmHg 71%
09:00 +21°C° 0 mm 3 mps 747 mmHg 62%
10:00 +22°C° 0 mm 3 mps 747 mmHg 57%
11:00 +25°C° 0 mm 3 mps 747 mmHg 52%
12:00 +26°C° 0 mm 3 mps 747 mmHg 47%
13:00 +26°C° 0 mm 3 mps 747 mmHg 48%
14:00 +26°C° 0 mm 3 mps 747 mmHg 48%
15:00 +26°C° 0 mm 3 mps 747 mmHg 49%
16:00 +26°C° 0 mm 3 mps 747 mmHg 51%
17:00 +26°C° 0 mm 3 mps 748 mmHg 52%
18:00 +26°C° 0 mm 2 mps 748 mmHg 54%
19:00 +24°C° 0 mm 2 mps 748 mmHg 62%
20:00 +21°C° 0 mm 2 mps 747 mmHg 70%
21:00 +20°C° 0 mm 1 mps 747 mmHg 78%
22:00 +19°C° 0 mm 1 mps 747 mmHg 79%
23:00 +18°C° 0 mm 2 mps 748 mmHg 80%

Day after tomorrow, 12 July, Sunday

Time Temperature Precipitation Wind Pressure Humidity
00:00 +17°C° 0 mm 2 mps 748 mmHg 82%
01:00 +17°C° 0 mm 2 mps 747 mmHg 81%
02:00 +17°C° 0 mm 3 mps 747 mmHg 80%
03:00 +17°C° 0 mm 3 mps 746 mmHg 79%
04:00 +17°C° 0 mm 3 mps 746 mmHg 79%
05:00 +18°C° 0 mm 3 mps 746 mmHg 78%
06:00 +18°C° 0 mm 3 mps 746 mmHg 78%
07:00 +20°C° 0 mm 4 mps 746 mmHg 73%
08:00 +21°C° 0 mm 5 mps 746 mmHg 69%
09:00 +23°C° 0 mm 5 mps 745 mmHg 64%
10:00 +23°C° 0 mm 5 mps 745 mmHg 64%
11:00 +23°C° 0 mm 5 mps 745 mmHg 64%
12:00 +23°C° 0 mm 5 mps 745 mmHg 64%
13:00 +22°C° 0.1 mm 5 mps 745 mmHg 71%
14:00 +21°C° 0.1 mm 4 mps 745 mmHg 77%
15:00 +21°C° 0.1 mm 4 mps 745 mmHg 84%
16:00 +21°C° 0.8 mm 3 mps 745 mmHg 87%
17:00 +21°C° 0.8 mm 3 mps 745 mmHg 90%
18:00 +21°C° 0.8 mm 3 mps 745 mmHg 93%
19:00 +20°C° 0.1 mm 2 mps 746 mmHg 93%
20:00 +18°C° 0.1 mm 2 mps 746 mmHg 94%
21:00 +18°C° 0.1 mm 1 mps 746 mmHg 94%
22:00 +16°C° 0 mm 2 mps 746 mmHg 95%
23:00 +15°C° 0 mm 2 mps 746 mmHg 95%

13 July, Monday

Time Temperature Precipitation Wind Pressure Humidity
00:00 +15°C° 0 mm 2 mps 747 mmHg 95%
01:00 +14°C° 0 mm 2 mps 747 mmHg 96%
02:00 +13°C° 0 mm 2 mps 747 mmHg 97%
03:00 +13°C° 0 mm 2 mps 747 mmHg 97%
04:00 +13°C° 0 mm 2 mps 747 mmHg 97%
05:00 +14°C° 0 mm 2 mps 748 mmHg 97%
06:00 +14°C° 0 mm 3 mps 748 mmHg 96%
07:00 +14°C° 0 mm 3 mps 748 mmHg 94%
08:00 +16°C° 0 mm 3 mps 748 mmHg 91%
09:00 +17°C° 0 mm 3 mps 749 mmHg 89%
10:00 +18°C° 0 mm 3 mps 749 mmHg 82%
11:00 +19°C° 0 mm 3 mps 749 mmHg 74%
12:00 +21°C° 0 mm 3 mps 750 mmHg 67%
13:00 +22°C° 0 mm 4 mps 750 mmHg 62%
14:00 +23°C° 0 mm 4 mps 749 mmHg 57%
15:00 +25°C° 0 mm 4 mps 749 mmHg 52%
16:00 +25°C° 0 mm 3 mps 750 mmHg 51%
17:00 +25°C° 0 mm 3 mps 750 mmHg 51%
18:00 +25°C° 0 mm 3 mps 750 mmHg 51%
19:00 +23°C° 0 mm 2 mps 750 mmHg 59%
20:00 +21°C° 0 mm 1 mps 750 mmHg 67%
21:00 +19°C° 0 mm 1 mps 750 mmHg 75%
22:00 +19°C° 0 mm 1 mps 749 mmHg 73%
23:00 +18°C° 0 mm 2 mps 749 mmHg 72%

14 July, Tuesday

Time Temperature Precipitation Wind Pressure Humidity
00:00 +18°C° 0 mm 2 mps 749 mmHg 70%
01:00 +18°C° 0.1 mm 2 mps 749 mmHg 75%
02:00 +17°C° 0.1 mm 2 mps 749 mmHg 80%
03:00 +17°C° 0.1 mm 2 mps 749 mmHg 85%
04:00 +17°C° 0 mm 2 mps 750 mmHg 87%
05:00 +18°C° 0 mm 2 mps 750 mmHg 88%
06:00 +18°C° 0 mm 3 mps 750 mmHg 90%
07:00 +20°C° 0 mm 3 mps 750 mmHg 77%
08:00 +21°C° 0 mm 4 mps 751 mmHg 65%
09:00 +23°C° 0 mm 4 mps 751 mmHg 53%
10:00 +23°C° 0 mm 4 mps 751 mmHg 50%
11:00 +25°C° 0 mm 5 mps 751 mmHg 48%
12:00 +25°C° 0 mm 5 mps 752 mmHg 45%
13:00 +25°C° 0 mm 5 mps 752 mmHg 45%
14:00 +26°C° 0 mm 5 mps 752 mmHg 45%
15:00 +26°C° 0 mm 5 mps 752 mmHg 44%
16:00 +25°C° 0 mm 5 mps 752 mmHg 46%
17:00 +25°C° 0 mm 5 mps 753 mmHg 48%
18:00 +23°C° 0 mm 5 mps 753 mmHg 50%
19:00 +21°C° 0 mm 4 mps 753 mmHg 53%
20:00 +19°C° 0 mm 4 mps 754 mmHg 57%
21:00 +18°C° 0 mm 3 mps 754 mmHg 60%
22:00 +16°C° 0 mm 3 mps 755 mmHg 62%
23:00 +14°C° 0 mm 3 mps 755 mmHg 65%

15 July, Wednesday

Time Temperature Precipitation Wind Pressure Humidity
00:00 +13°C° 0 mm 3 mps 756 mmHg 68%
01:00 +12°C° 0 mm 3 mps 756 mmHg 73%
02:00 +11°C° 0 mm 3 mps 757 mmHg 78%
03:00 +10°C° 0 mm 2 mps 757 mmHg 83%
04:00 +12°C° 0 mm 2 mps 758 mmHg 80%
05:00 +11°C° 0 mm 3 mps 758 mmHg 77%
06:00 +11°C° 0 mm 3 mps 758 mmHg 75%
07:00 +13°C° 0 mm 3 mps 759 mmHg 68%
08:00 +14°C° 0 mm 3 mps 759 mmHg 61%
09:00 +16°C° 0 mm 3 mps 759 mmHg 54%
10:00 +18°C° 0 mm 3 mps 759 mmHg 51%
11:00 +19°C° 0 mm 3 mps 759 mmHg 48%
12:00 +20°C° 0 mm 3 mps 759 mmHg 46%
13:00 +20°C° 0 mm 3 mps 759 mmHg 45%
14:00 +21°C° 0 mm 3 mps 759 mmHg 44%
15:00 +22°C° 0 mm 3 mps 759 mmHg 44%
16:00 +21°C° 0 mm 3 mps 758 mmHg 46%
17:00 +21°C° 0 mm 2 mps 758 mmHg 49%
18:00 +21°C° 0 mm 2 mps 758 mmHg 51%
19:00 +20°C° 0 mm 1 mps 758 mmHg 58%
20:00 +18°C° 0 mm 1 mps 758 mmHg 65%
21:00 +14°C° 0 mm 0 mps 758 mmHg 72%
22:00 +15°C° 0 mm 1 mps 758 mmHg 72%
23:00 +14°C° 0 mm 1 mps 758 mmHg 73%
Show more